Zurück zum Katalog

USA 577

AktivMilitärVLEO
NORAD 67489·PAYLOAD·🇺🇸 United States

Gestartet Jan 17, 2026 von Vandenberg Space Force Base

Loading…

Nächste Überflüge (nächste 24 Stunden)

TLE

VeraltetSource: Mike McCants

Epoche: Jul 26, 2026, 22:16 UTC

1 67489U 26011F   26207.92808461 0.00000000  00000-0  00000-0 0    02
2 67489  70.0210 137.2383 0002000 286.1340  73.8660 14.96713362    01

Verfolge USA 577 in Echtzeit mit AllMySat

Download on the App Store